Lapse_Rate
3.0 3.0 2.9 2.7 2.6 2.4 2.2 2.0 1.6 1.2 0.9 0.5 0.1 -0.4 -0.5 -0.9 -1.7 3.2 5.1 5.4 5.0 3.0 2.2 4.8 5.4 5.9 5.2 4.9 5.2 6.6 6.5 6.5 6.5 6.5 6.5 6.3 6.4 6.1 6.0 5.6 6.3 7.0 6.2 6.1 6.0
3.4 3.2 3.2 3.2 2.9 2.6 2.5 2.2 1.8 1.5 1.2 0.7 0.3 -0.2 -0.5 -0.8 0.8 2.4 2.6 3.4 3.2 2.2 5.0 5.2 5.6 5.9 4.5 5.2 4.9 5.2 6.5 6.5 6.5 6.4 6.5 6.4 5.3 5.6 6.3 6.6 6.7 6.6 6.7 7.1 7.2
3.5 3.4 3.4 3.4 3.3 3.0 2.6 2.6 2.2 1.9 1.6 1.1 0.7 0.3 -0.3 -0.6 3.7 5.9 3.3 3.5 3.6 3.3 4.7 4.9 5.4 6.1 5.4 4.7 4.9 5.3 6.5 6.5 6.2 5.5 5.3 6.2 5.7 5.7 6.2 6.5 6.6 6.4 5.6 5.4 4.9
3.7 3.7 3.6 3.5 3.5 3.4 3.2 2.8 2.5 2.1 1.8 1.5 1.2 0.9 0.1 1.7 6.5 6.1 4.6 4.5 4.9 3.5 5.3 5.7 5.9 5.5 6.2 6.5 4.5 6.5 5.8 6.3 5.9 6.0 5.5 6.3 5.8 6.2 6.3 5.9 5.6 5.9 6.0 5.7 5.3
3.8 3.7 3.7 3.7 3.8 3.7 3.3 2.9 2.5 2.2 2.0 1.7 1.7 1.4 1.6 5.9 6.4 5.9 5.7 5.2 4.4 6.2 6.3 6.5 6.1 5.5 6.5 6.1 5.7 6.5 6.4 6.1 5.3 5.8 6.3 6.1 6.3 6.2 5.9 5.3 5.7 6.8 6.2 5.5 5.1
4.4 4.2 4.0 3.8 3.9 3.7 3.5 3.2 2.7 2.2 2.1 1.9 2.1 2.4 4.5 6.6 6.4 7.5 5.6 6.8 6.5 6.9 6.9 6.6 6.6 6.3 5.9 6.0 6.3 5.9 5.7 5.4 5.9 5.2 5.9 6.3 6.3 5.3 5.9 5.6 6.1 5.8 5.3 5.2 5.7
3.8 4.2 4.5 4.5 4.3 4.4 4.3 3.8 3.3 2.3 2.0 2.1 2.6 4.7 6.1 5.1 6.3 6.9 7.9 7.5 7.5 7.9 7.2 7.1 6.9 6.0 5.3 6.5 5.9 6.2 6.5 6.5 5.8 5.4 6.3 5.0 6.5 6.5 5.2 6.2 5.8 5.5 5.6 5.4 5.5
2.1 2.5 2.8 3.5 3.9 4.0 4.1 4.0 3.8 3.2 2.8 2.7 3.0 5.0 6.7 7.1 7.2 6.7 7.1 7.5 7.9 8.2 7.8 7.2 7.7 6.5 6.3 5.6 5.9 6.5 6.5 6.5 6.5 6.1 5.8 5.4 6.5 6.5 4.8 5.1 4.3 4.8 5.4 5.7 5.9
3.4 3.0 2.6 2.7 2.3 2.5 2.6 3.4 3.5 3.2 2.8 3.3 4.3 5.4 6.8 7.8 7.3 7.2 7.9 7.9 8.0 7.8 7.3 8.9 7.7 6.0 5.4 6.5 6.5 6.5 6.5 6.5 6.5 6.2 6.5 6.5 6.5 6.3 4.8 5.7 5.3 4.7 4.6 5.3 5.2
4.3 3.6 3.9 4.4 3.8 3.4 3.0 3.1 3.7 3.6 4.6 6.0 6.9 6.5 6.1 5.9 8.2 8.4 7.9 8.4 7.6 7.1 7.1 6.9 5.5 6.5 6.5 6.5 6.5 6.5 6.5 6.5 6.5 6.5 6.5 6.5 6.5 6.5 5.4 5.6 5.9 5.1 4.9 5.4 4.7
4.1 4.6 3.9 4.2 3.7 4.1 3.7 4.3 5.2 5.3 5.9 6.0 6.2 7.0 7.2 8.0 8.3 8.2 8.2 7.7 7.3 6.4 6.5 5.7 6.5 6.5 6.5 6.5 6.5 6.5 6.5 6.5 6.5 6.5 6.5 6.5 6.5 6.5 5.6 4.7 4.9 4.5 4.6 4.8 4.4
6.0 5.7 5.4 4.9 4.1 4.0 4.5 5.9 4.8 4.8 6.1 7.0 6.2 6.9 8.0 6.5 7.3 7.8 7.7 6.4 6.3 6.5 6.3 6.5 6.5 6.5 6.5 6.5 6.5 6.5 6.5 6.5 6.5 6.5 6.5 6.5 6.5 6.5 6.4 6.1 5.5 5.2 4.8 4.6 5.3
6.2 5.6 5.9 5.5 5.4 4.9 5.5 6.4 4.8 5.7 6.5 7.2 7.3 7.6 7.4 7.5 7.2 7.3 6.9 6.6 6.4 6.5 6.5 6.5 6.5 6.5 6.5 6.5 6.5 6.5 6.5 6.5 6.5 6.5 6.5 6.5 6.5 6.5 6.5 5.8 5.1 4.9 5.3 4.3 4.4
6.0 5.2 4.8 5.0 5.9 5.6 5.9 6.2 4.9 5.0 6.5 6.5 6.8 7.3 8.0 8.0 6.6 7.5 7.8 6.7 6.5 6.5 6.5 6.5 6.5 6.5 6.5 6.5 6.5 6.5 6.5 6.5 6.5 6.5 6.5 6.5 6.5 6.5 6.5 6.5 6.5 5.5 4.9 4.9 5.4
6.8 5.8 5.5 5.8 7.0 5.9 7.4 6.3 5.5 5.2 6.5 6.5 6.7 8.0 7.5 7.0 7.0 7.1 7.6 7.1 6.5 6.5 6.5 6.5 6.5 6.5 6.5 6.5 6.5 6.5 6.5 6.5 6.5 6.5 6.5 6.5 6.5 6.5 6.5 6.5 6.5 6.1 5.2 3.9 4.4
7.0 6.4 6.4 5.7 5.6 5.6 6.4 6.5 5.6 6.5 6.5 6.5 6.7 6.5 6.5 6.8 6.7 6.9 6.9 7.4 7.2 6.5 6.5 6.5 5.8 6.5 6.5 6.5 6.5 6.5 6.5 6.5 6.5 6.5 6.5 6.5 6.5 6.5 6.5 6.5 6.5 6.3 5.4 4.3 3.4
7.5 7.1 6.5 7.1 6.2 6.9 5.6 5.9 6.5 6.5 6.5 6.5 6.5 6.5 6.5 6.5 6.5 6.5 6.5 6.5 6.5 6.5 6.5 6.5 6.5 6.5 6.4 6.5 6.5 6.5 6.5 6.5 6.5 6.5 6.5 6.5 6.5 6.5 6.5 6.5 6.5 6.4 5.9 4.1 4.4
7.5 7.5 6.7 6.5 6.1 6.1 5.6 6.5 6.5 6.5 6.5 6.5 6.5 6.5 6.5 6.5 6.5 6.5 6.5 6.5 6.5 6.5 6.5 6.5 6.5 6.5 6.5 6.5 6.5 6.5 6.5 6.5 6.5 6.5 6.5 6.5 6.5 6.5 6.5 6.1 6.2 6.5 5.1 4.8 4.2
7.4 6.3 6.0 5.9 5.8 5.9 6.4 6.5 6.5 6.5 6.5 6.5 6.5 6.5 6.5 6.5 6.5 6.5 6.5 6.5 6.5 6.5 6.5 6.5 6.5 6.5 6.5 6.5 6.5 6.5 6.5 6.5 6.5 6.5 6.5 6.5 6.5 6.5 6.5 6.5 6.2 6.3 5.5 4.7 4.4
6.3 6.5 6.4 6.5 6.3 6.1 6.5 6.5 6.5 6.5 6.5 6.5 6.5 6.5 6.5 6.5 6.5 6.5 6.5 6.5 6.5 6.5 6.4 6.5 6.5 6.5 6.5 6.3 6.4 6.5 6.5 6.5 6.5 6.5 6.5 6.5 6.5 6.5 6.5 6.5 6.5 6.2 5.5 5.2 4.5
6.3 6.3 7.4 7.2 6.4 6.5 6.5 6.5 6.5 6.8 6.8 6.5 6.5 6.5 6.5 6.5 6.5 6.5 6.5 6.5 6.5 6.5 6.5 6.5 6.5 6.5 6.5 6.5 6.5 6.5 6.5 6.5 6.5 6.5 6.5 6.5 6.5 6.5 6.5 6.5 6.5 5.9 4.9 4.0 3.5
6.8 6.5 7.2 6.8 6.5 6.4 6.5 6.5 6.4 6.5 6.7 6.5 6.5 6.5 6.5 6.5 6.5 6.5 6.5 6.5 5.9 6.4 6.5 6.5 6.5 6.5 6.5 6.5 6.5 6.5 6.5 6.5 6.5 6.5 6.5 6.5 6.5 6.5 6.5 6.4 5.4 5.7 5.7 4.2 1.1
6.6 5.6 6.3 7.1 6.5 6.5 6.5 6.5 6.6 6.5 6.5 6.5 6.5 6.5 6.5 6.5 6.5 6.5 6.5 6.3 5.7 6.5 6.5 6.5 6.5 6.5 6.5 6.5 6.5 6.5 6.5 6.5 6.5 6.5 6.5 6.5 6.5 6.5 6.2 6.2 5.5 5.0 4.7 3.3 0.2
4.6 6.5 6.2 6.4 6.6 6.5 6.5 6.5 6.5 6.6 6.5 6.4 6.5 6.5 6.5 6.5 6.5 6.5 6.5 6.5 6.0 6.3 5.4 5.9 6.5 6.5 6.5 6.5 6.5 6.5 6.5 6.5 6.5 6.5 6.5 6.5 6.5 6.5 6.5 6.5 6.4 5.3 4.0 2.0 -0.1
4.7 6.3 6.7 6.5 6.5 6.5 6.5 6.5 6.5 6.5 6.5 6.3 6.5 6.5 6.5 6.5 6.5 6.5 6.5 6.5 6.5 5.7 6.4 6.5 6.5 6.5 6.5 6.5 6.5 6.5 6.5 6.5 6.5 6.5 6.5 6.5 6.5 6.5 6.5 6.5 5.6 4.1 4.0 4.3 3.8
5.7 6.2 6.5 6.8 6.8 6.5 6.5 6.5 6.5 6.5 6.5 6.5 6.5 6.5 6.5 6.5 6.5 6.5 6.5 6.5 6.5 6.5 6.5 6.5 6.5 6.5 6.5 6.5 6.5 6.5 6.5 6.5 6.5 6.5 6.5 6.5 6.5 6.5 5.3 4.7 5.1 4.6 5.4 5.2 4.0
4.6 5.6 6.5 6.6 6.5 6.5 6.5 6.5 6.5 6.5 6.3 6.5 6.4 6.5 6.5 6.5 6.0 5.8 5.2 6.1 6.5 6.5 6.5 6.5 6.5 6.5 6.5 6.5 6.5 6.5 6.5 6.5 6.5 6.5 6.5 6.5 6.5 6.5 6.5 6.4 5.3 4.7 4.1 4.0 4.4
Wind_Speed
13 12 11 9 8 8 8 10 12 14 16 19 22 24 27 29 34 6 6 2 2 11 12 8 8 8 6 8 5 1 3 6 6 8 5 3 8 10 12 16 8 7 11 16 17
14 13 12 11 9 7 9 10 11 14 17 19 22 25 27 28 8 10 3 2 3 5 6 6 10 11 6 6 4 5 3 6 1 4 2 2 6 8 9 16 15 13 14 16 12
15 14 13 11 10 9 8 10 11 14 17 19 21 25 28 24 5 1 5 6 7 3 3 4 10 8 6 5 6 5 6 4 3 6 7 1 7 5 17 11 13 15 12 13 13
17 16 14 13 11 10 9 9 11 13 16 18 20 24 32 2 6 2 7 7 10 7 4 6 7 5 5 6 7 2 4 3 4 4 6 5 6 7 15 9 10 12 12 13 12
18 17 15 15 13 12 10 9 11 13 15 15 17 21 9 3 9 7 8 10 8 5 7 9 8 6 6 6 7 2 5 2 8 6 3 4 3 9 11 12 11 13 13 11 10
19 18 16 15 14 13 12 10 11 12 14 13 13 17 2 8 8 11 11 6 10 7 8 8 4 6 5 5 4 4 5 7 3 7 5 4 7 8 7 11 11 12 10 9 10
7 16 17 17 15 14 13 10 9 10 12 11 10 5 6 15 10 23 10 7 8 5 4 8 4 5 8 7 7 4 6 8 8 6 6 7 2 8 10 11 12 11 10 10 9
10 11 11 5 13 13 9 7 8 10 11 10 8 4 8 12 23 11 15 12 9 6 6 8 4 5 4 5 6 4 3 4 9 12 5 9 5 7 12 14 12 11 10 10 10
7 8 11 8 7 6 5 6 7 8 7 8 4 4 10 11 8 11 10 9 8 8 8 8 3 5 6 3 4 4 6 8 12 15 7 5 4 4 9 14 13 12 11 11 10
10 6 5 4 6 9 11 8 7 7 6 7 6 6 8 10 10 13 6 9 9 6 4 3 3 3 2 2 6 7 9 7 5 7 6 8 5 14 14 13 14 14 13 13 11
10 9 4 7 2 8 6 4 3 3 5 9 10 7 15 6 7 2 6 6 7 5 8 5 3 7 12 11 12 11 3 5 2 2 4 7 8 13 13 9 13 15 14 13 13
12 12 9 6 0 3 3 3 2 1 8 15 20 21 21 14 10 11 8 7 8 13 7 8 13 11 16 14 7 5 3 6 5 7 6 8 8 7 17 16 16 15 15 15 13
16 17 15 11 5 3 2 1 6 2 5 7 13 17 14 17 17 19 11 10 8 11 12 13 11 17 17 11 3 5 4 5 7 6 2 7 4 7 6 12 11 13 14 18 17
9 2 10 9 5 4 3 5 9 3 4 6 9 9 16 15 17 24 20 9 8 13 15 12 18 16 3 6 4 6 6 6 7 6 5 4 5 5 8 15 16 12 15 15 15
12 11 11 15 2 4 5 14 8 3 5 1 8 7 7 21 7 19 24 18 17 16 7 8 7 9 8 8 9 6 8 2 4 4 3 2 4 6 4 9 13 13 17 15 15
13 13 11 7 4 8 8 13 2 4 8 6 4 4 8 21 19 4 19 20 14 17 18 17 9 7 4 6 4 2 3 2 3 2 5 6 8 5 11 14 13 15 16 15 11
16 18 10 6 3 8 6 4 3 4 5 6 5 8 9 9 19 19 5 18 16 16 22 19 22 17 8 3 1 4 6 1 2 1 7 10 9 14 4 13 20 20 16 14 14
17 19 9 9 7 4 3 4 5 12 10 9 3 9 11 7 10 18 15 9 9 17 3 14 14 18 8 9 6 7 7 5 5 4 3 4 7 1 7 15 15 16 16 14 12
16 5 4 4 14 3 4 8 10 8 9 5 7 6 8 9 6 13 15 11 10 15 18 3 7 6 16 6 15 5 11 9 6 2 0 4 2 6 10 11 13 14 15 12 11
3 5 10 15 10 3 5 7 8 14 10 2 8 7 3 6 11 11 11 8 16 16 11 7 4 4 3 5 13 6 3 6 1 3 5 5 7 5 8 8 8 10 12 13 13
4 5 5 19 6 4 8 10 13 12 16 6 5 7 10 11 2 5 4 9 8 11 15 14 11 4 4 2 9 5 10 3 5 5 4 0 5 5 8 10 10 9 11 12 12
5 5 6 13 10 3 9 7 8 12 13 9 2 6 13 10 12 13 11 15 8 6 5 10 6 8 7 5 3 5 6 6 4 4 3 3 5 6 8 9 8 8 8 5 15
3 2 6 14 10 13 14 23 9 10 18 5 5 3 3 6 4 6 14 3 1 7 6 4 3 4 2 4 2 2 2 6 4 3 6 4 5 4 7 7 9 9 5 14 14
1 2 3 8 12 19 22 25 25 11 17 12 5 7 6 7 9 5 2 4 8 4 2 4 2 6 7 4 5 5 5 3 5 4 4 9 6 7 4 5 1 6 7 9 15
3 4 4 6 11 17 24 18 26 23 18 6 6 11 9 5 6 2 4 2 3 6 4 2 1 2 2 5 2 4 5 5 5 5 6 6 10 5 5 4 5 8 11 14 14
3 2 3 2 8 23 20 24 20 26 19 18 16 13 8 12 7 1 5 2 2 2 1 0 4 3 3 5 5 3 10 7 6 5 5 5 9 6 8 7 4 9 14 14 14
2 3 3 3 7 12 18 29 31 21 9 18 21 13 13 16 2 2 5 6 3 1 1 2 4 2 4 5 4 4 7 5 4 7 5 8 9 4 5 5 5 7 9 11 14
Wind_Direction
256 260 268 275 285 302 316 329 337 339 340 337 333 329 327 327 323 299 267 212 3 326 302 294 302 306 271 235 238 283 31 277 296 330 173 133 111 69 84 86 60 68 102 135 128
249 255 260 269 274 290 309 321 329 334 334 336 333 328 325 331 312 280 211 198 263 315 17 335 316 322 324 283 286 129 139 256 151 19 104 65 115 120 98 95 98 95 80 92 109
246 249 255 262 271 284 295 310 322 329 330 331 331 327 325 328 300 251 192 247 274 299 232 264 273 283 275 301 250 214 206 281 25 30 14 77 60 61 113 107 131 122 108 96 84
245 247 250 254 261 269 280 295 311 320 324 326 330 329 324 265 299 177 208 249 278 290 297 278 287 294 276 278 282 115 286 259 124 39 359 18 53 63 95 101 101 103 102 92 84
248 249 250 251 252 257 269 283 300 310 313 321 328 333 345 315 256 175 208 252 281 263 254 277 304 301 282 321 324 155 279 232 124 133 270 319 83 121 105 105 103 99 97 107 104
247 250 251 253 258 262 264 276 292 305 310 316 326 334 251 266 259 196 198 242 234 277 278 275 292 314 286 289 312 19 356 313 288 191 214 137 131 107 152 123 116 109 105 93 98
285 259 252 253 253 258 263 269 283 301 304 311 315 316 254 243 282 293 285 218 265 282 300 322 26 3 332 315 329 14 330 312 271 242 214 136 254 138 150 134 130 126 123 112 99
16 5 4 311 255 247 239 266 294 297 300 299 301 281 254 259 257 268 270 243 233 262 264 290 351 293 245 292 342 287 294 260 255 212 203 121 236 159 153 139 136 133 124 114 106
351 3 350 341 357 336 304 281 287 289 267 272 277 208 269 291 241 241 235 252 252 214 251 266 31 232 313 222 338 245 236 227 263 206 150 131 115 201 155 150 151 148 138 130 121
294 306 321 304 336 319 314 298 279 300 243 242 243 304 250 253 252 231 209 226 245 202 221 185 265 242 288 153 215 220 225 268 228 184 142 188 156 170 181 168 163 156 152 148 130
264 255 262 275 315 314 318 289 261 234 226 203 187 234 292 319 257 223 193 223 249 209 193 222 189 216 223 224 235 255 266 284 311 123 112 183 161 187 190 185 165 166 164 144 140
268 238 233 205 282 306 305 311 75 279 289 244 254 264 267 279 289 267 225 186 216 228 192 233 237 228 238 242 243 224 258 284 296 184 154 203 217 216 192 198 176 170 161 140 138
243 247 208 160 153 263 263 191 142 19 274 242 236 245 233 234 246 256 188 201 218 219 225 216 238 219 235 245 194 256 225 257 267 294 158 150 239 241 221 177 176 170 156 145 150
220 182 148 147 123 168 222 223 113 81 288 266 222 253 212 218 250 224 243 193 218 226 224 245 237 254 171 229 208 223 242 255 264 250 240 119 283 261 246 183 181 163 146 150 150
204 199 172 177 186 178 223 146 140 111 300 217 198 175 187 188 139 208 214 225 220 228 221 234 211 245 237 192 220 240 264 282 298 309 339 316 287 230 176 172 164 135 131 133 137
207 208 208 222 268 243 331 122 160 103 236 288 135 189 145 201 237 12 196 218 235 244 252 249 261 259 292 223 213 202 111 341 333 45 275 193 212 239 233 196 157 143 143 146 143
224 212 188 211 215 210 151 175 98 192 256 238 187 175 206 197 220 232 177 201 211 221 235 241 248 257 251 227 98 106 102 330 321 238 239 199 223 239 244 175 159 151 145 141 136
232 223 226 220 249 38 221 179 194 198 218 5 280 189 197 218 215 216 213 208 232 235 276 222 242 224 234 177 173 179 159 166 216 201 275 288 239 253 65 87 132 146 139 138 142
240 228 232 218 235 126 247 216 198 197 197 237 11 315 204 211 224 207 225 232 233 226 223 232 248 194 223 168 176 197 218 209 263 336 276 247 66 50 80 78 89 122 133 143 149
224 226 233 216 172 117 242 230 249 221 230 32 157 255 284 203 206 183 204 207 231 249 205 186 309 288 20 151 192 162 166 190 108 202 221 241 228 190 148 133 127 128 153 167 162
246 225 203 189 147 206 223 226 245 242 228 238 159 247 269 283 214 290 251 236 227 219 224 214 211 295 95 222 168 163 219 181 156 159 179 224 273 212 167 165 166 181 190 184 165
232 228 182 157 194 220 215 204 242 237 241 256 228 237 242 273 265 185 256 268 22 340 248 191 175 206 198 194 250 197 190 145 130 244 213 176 266 174 152 146 161 197 191 159 142
235 223 266 167 198 213 225 234 257 239 230 236 183 233 322 305 316 215 205 296 302 49 329 99 336 107 110 26 23 269 186 189 148 118 229 143 256 212 174 176 205 208 193 136 132
170 236 232 216 201 199 205 222 229 230 254 245 202 223 296 306 282 263 67 45 335 107 354 348 159 158 205 208 170 189 194 209 174 185 216 229 240 262 237 198 276 121 136 138 143
176 226 226 190 196 211 202 220 222 231 224 230 247 224 212 245 295 206 85 64 0 9 336 112 223 85 71 167 175 163 185 223 228 228 210 256 236 192 234 240 261 141 137 138 144
238 203 221 258 194 205 208 215 219 223 225 212 225 229 214 235 228 244 142 141 128 133 285 125 190 109 312 224 198 229 239 205 228 251 230 227 259 216 251 253 182 159 146 159 165
231 258 294 223 202 201 206 215 215 221 232 230 210 224 211 221 134 210 146 126 134 58 100 55 126 102 230 170 75 317 220 250 245 233 211 230 249 240 251 275 138 162 150 157 169